Flag for U.S.A. Weather past 2 weeks in Oxnard, California, U.S.A.

Now
62 °F

Overcast.


Feels Like: 62 °F
Forecast: 62 / 70 °F
Wind: No wind

Location: Oxnard Airport

Current Time: Jul 7, 2015 at 4:47:40 AM

Latest Report: Jul 7, 2015 at 3:51 AM


Visibility: 9 mi

Pressure: 29.97 "Hg

Humidity: 83%

Dew point: 57 °F

Location of OxnardLocation

Historic Weather in Oxnard — Graph

°F

Oxnard temperature yesterday

Maximum temperature yesterday: 69 °F (at 1:51 PM)
Minimum temperature yesterday: 61 °F (at 5:51 AM)
Average temperature yesterday: 65 °F

Past Weeks' High & Low Weather Summary

 TemperatureHumidityPressure
High77 °F (Jun 30, 2:51 PM)93% (Jun 26, 3:51 AM)30.06 "Hg (Jun 26, 3:51 AM)
Low58 °F (Jun 22, 5:51 AM)51% (Jun 23, 2:51 PM)29.80 "Hg (Jun 30, 7:51 PM)
Average66 °F76%29.93 "Hg
* Reported Jun 22 3:51 AM — Jul 7 3:01 AM, Oxnard, Weather by CustomWeather, © 2015

Note: Actual official high and low records may vary slightly from our data, if they occured in-between our weather recording intervals... More about our weather records

Advertising

Oxnard weather history for previous 24 hours

 ConditionsComfort  
Time TempWeatherWind HumidityBarometerVisibility
3:01 AM
Tue, Jul 7
61 °FPassing clouds.No wind87%29.98 "Hg9 mi
1:51 AM61 °FClear.5 mph87%29.98 "Hg8 mi
12:51 AM62 °FClear.No wind86%29.98 "Hg8 mi
11:51 PM
Mon, Jul 6
63 °FClear.No wind84%29.99 "Hg9 mi
10:51 PM63 °FLow clouds.3 mph84%29.99 "Hg9 mi
9:51 PM64 °FLow clouds.No wind84%29.98 "Hg9 mi
8:51 PM64 °FPartly sunny.3 mph84%29.96 "Hg9 mi
7:51 PM65 °FPassing clouds.9 mph78%29.96 "Hg9 mi
6:51 PM67 °FPassing clouds.12 mph76%29.96 "Hg10 mi
5:51 PM68 °FPartly sunny.12 mph70%29.96 "Hg10 mi
4:51 PM68 °FPartly sunny.12 mph70%29.97 "Hg10 mi
3:51 PM68 °FPartly sunny.9 mph70%29.99 "Hg10 mi
2:58 PM69 °FPartly sunny.13 mph68%30.01 "Hg10 mi
1:51 PM69 °FOvercast.12 mph66%30.03 "Hg10 mi
12:51 PM68 °FOvercast.8 mph70%30.04 "Hg10 mi
11:51 AM66 °FOvercast.6 mph73%30.05 "Hg10 mi
10:51 AM65 °FOvercast.3 mph78%30.06 "Hg10 mi
9:51 AM64 °FOvercast.5 mph78%30.06 "Hg10 mi
8:51 AM62 °FFog.5 mph86%30.05 "Hg5 mi
7:51 AM62 °FFog.3 mph90%30.04 "Hg5 mi
6:51 AM61 °FFog.5 mph93%30.03 "Hg3 mi
5:51 AM61 °FFog.5 mph90%30.02 "Hg6 mi
4:51 AM62 °FLow clouds.7 mph86%30.02 "Hg7 mi
Weather by CustomWeather, © 2015

See weather overviewHow to use our weather pages